Tracking 18945 objects as of 19-Jan-2018
HD Live streaming from Space Station
objects crossing your sky now

SL-12 DEB

Track SL-12 DEB now!
10-day predictions


NORAD ID: 42974
Int'l Code: 2010-041P
Perigee: 778.7 km
Apogee: 18,500.2 km
Inclination: 65.2 °
Period: 336.0 minutes
Semi major axis: 16010 km
RCS: Unknown
Launch date: September 2, 2010
Source: Commonwealth of Independent States (former USSR) (CIS)
Launch site: TYURATAM MISSILE AND SPACE COMPLEX (TTMTR)

Note: This is SATELLITE DEBRIS
aabbcc
Your satellite tracking list
Your tracking list is empty




NASA's NSSDC Master Catalog

Two Line Element Set (TLE):
1 42974U 10041P   18018.81847006 -.00000017 +00000-0 -57516-3 0  9991
2 42974 065.1970 130.5268 5534370 077.2625 336.5791 04.28547678005861
Source of the keplerian elements: AFSPC